Regional Weather Roundup
Issued by NWS

Home | Current Version | Previous Version | Graphics & Text | Print | Product List | Glossary On
Versions: 1 2 3 4 5 6 7 8 9 10 11 12 13 14 15 16 17 18 19 20 21 22 23 24 25 26 27 28 29 30 31 32 33 34 35 36 37 38 39 40 41 42 43 44 45
000
ASUS43 KDMX 280407
RWRIA

WEATHER ROUNDUP FOR IOWA
NATIONAL WEATHER SERVICE DES MOINES IA
1000 PM CST SAT DEC 27 2014

NOTE: "FAIR" INDICATES FEW OR NO CLOUDS BELOW 12,000 FEET WITH NO
SIGNIFICANT WEATHER AND/OR OBSTRUCTIONS TO VISIBILITY.

* - THESE STATIONS ARE NOT NWS STATIONS...THUS NOT UNDER NWS
QUALITY CONTROL.  THEY ALSO DO NOT REPORT WEATHER SUCH
AS PRECIPITATION OR FOG.

IAZ001>003-012>014-020>022-031>034-043>046-280500-
   NORTHWEST IOWA

CITY           SKY/WX    TMP DP  RH WIND       PRES   REMARKS
CARROLL *      CLEAR     16  12  86 W9        30.19F WCI   4
CHEROKEE *     CLEAR     10   9  92 S3        30.18S
DENISON *      CLEAR     14  12  92 CALM      30.18F
LE MARS *      CLEAR      9   7  92 CALM      30.18S
ORANGE CITY *  CLEAR     10   7  85 CALM      30.15S
SHELDON *      CLEAR      7   5  92 SW5       30.14F WCI  -2
SIOUX CITY     CLEAR      8   4  83 SE5       30.19S WCI   0
SPENCER        CLEAR      7   3  84 W9        30.16S WCI  -7
STORM LAKE *   CLEAR     12   9  85 SW12      30.16F WCI  -2
$$

IAZ055>058-069>071-079>083-090>094-280500-
   SOUTHWEST IOWA

CITY           SKY/WX    TMP DP  RH WIND       PRES   REMARKS
ATLANTIC *     CLEAR     16  12  86 CALM      30.22S
AUDUBON *      CLEAR     16  10  79 CALM      30.20S
CLARINDA *     CLEAR     16  14  93 SW3       30.28R
COUNCIL BLFS * CLEAR     19  16  86 SW5       30.21S WCI  13
CRESTON *      CLEAR     18  16  93 W5        30.22S WCI  11
HARLAN  *      CLEAR     14  14 100 S5        30.25S WCI   6
LAMONI         CLEAR     21  17  84 W6        30.22S WCI  13
RED OAK *      MOCLDY    16  14  93 CALM      30.25S
SHENANDOAH *   CLEAR     19  16  86 CALM      30.27S
$$

IAZ047>049-059>061-072>074-084-280500-
   CENTRAL IOWA

CITY           SKY/WX    TMP DP  RH WIND       PRES   REMARKS
AMES           CLEAR     19  13  77 W5        30.20F WCI  12
ANKENY *       CLEAR     19  16  86 CALM      30.22S
CHARITON *       N/A     23  19  86 W5        30.22S WCI  17
DES MOINES     CLEAR     21  16  81 W3        30.23S
GRINNELL*      CLEAR     21  18  86 W7        30.21S WCI  13
KNOXVILLE *    PTCLDY    23  19  86 W7        30.21F WCI  15
MARSHALLTOWN   CLEAR     18  14  84 W7        30.19S WCI   9
PELLA *        PTCLDY    21  19  93 NW5       30.24S WCI  15
PERRY *          N/A     16  16 100 W7        30.21S WCI   6
$$

IAZ004>006-015-016-023>025-035-036-280500-
   NORTH CENTRAL IOWA

CITY           SKY/WX    TMP DP  RH WIND       PRES   REMARKS
ALGONA *       CLEAR     10   7  85 W8        30.18R WCI  -1
CLARION *      CLEAR     10   9  92 CALM      30.19R
ESTHERVILLE    CLEAR      9   6  88 SW9       30.15S WCI  -4
FORT DODGE *     N/A     12   7  79 W6        30.19R WCI   3
MASON CITY     CLEAR     13   9  84 W13       30.17R WCI  -2
FOREST CITY *  CLEAR     12   9  85 SW6       30.16S WCI   3
IOWA FALLS *     N/A     18  14  86 W8        30.18F WCI   7
$$

IAZ007>011-017>019-026>030-037>042-050>054-066-280500-
   NORTHEAST IOWA

CITY           SKY/WX    TMP DP  RH WIND       PRES   REMARKS
CEDAR RAPIDS   CLEAR     18  15  88 NW8       30.19R WCI   8
CHARLES CITY * CLEAR     14  12  92 W8        30.17S WCI   3
CLINTON *      PTCLDY    25  19  80 W14       30.21R WCI  13
DECORAH *      CLEAR     16  10  79 W5        30.14S WCI   9
DUBUQUE        MOCLDY    21  17  84 W10       30.15R WCI  10
MONTICELLO *   CLEAR     21  18  86 W8        30.19R WCI  12
OELWEIN *      CLEAR     18  14  86 W9        30.17S WCI   6
WATERLOO       CLEAR     17  14  88 W7        30.19S WCI   8
$$

IAZ064-065-067-068-078-280500-
   EAST CENTRAL IOWA

CITY           SKY/WX    TMP DP  RH WIND       PRES   REMARKS
DAVENPORT      PTCLDY    25  19  78 W12       30.20R WCI  14
IOWA CITY      CLEAR     23  17  78 NW8       30.23R WCI  14
MT. PLEASANT * CLOUDY    27  21  80 W10G21    30.23S WCI  17
MUSCATINE *    MOCLDY    27  19  74 W14       30.24R WCI  15
QUAD CITIES    PTCLDY    27  20  75 NW10      30.21R WCI  17
$$

IAZ062-063-075>077-085>089-095>099-280500-
   SOUTHEAST IOWA

CITY           SKY/WX    TMP DP  RH WIND       PRES   REMARKS
BURLINGTON     CLOUDY    29  23  78 W9        30.21S WCI  20
FAIRFIELD *    CLOUDY    27  21  80 NW13      30.23S WCI  16
FORT MADISON * CLOUDY    30  25  80 NW7       30.22F WCI  23
KEOKUK *       CLOUDY    30  23  74 NW7G14    30.22S WCI  23
OSKALOOSA *    CLOUDY    25  21  86 W12       30.23S WCI  14
CENTERVILLE *  CLOUDY    27  23  86 W10       30.24S WCI  17
OTTUMWA        CLOUDY    26  19  74 NW13      30.22S WCI  15
WASHINGTON *   CLOUDY    27  25  93 NW12      30.23R WCI  16
$$

ABBREVIATIONS USED IN REMARKS
   TC - TEMPERATURES IN CELSIUS
  WCI - WIND CHILL INDEX
   HX - HEAT INDEX
  VSB - VISIBILITY
$$




USA.gov is the U.S. government's official web portal to all federal, state and local government web resources and services.